[[{"header":{"parameterUnit":"m.s-1","parameterCategory":1,"la1":30.2991,"la2":30.254,"lo1":-89.0895,"lo2":-89.0444,"dy":0.0017,"dx":0.0017,"nx":28,"ny":28,"refTime":"2025-08-09T21:00:00:Z","depth":0,"parameterNumber":2,"parameterNumberName":"U-component_of_WINDS"},"data":[0,0,0,0,0,0,0,0,0,0,0,0,0,0,0,0,0,0,0,0,0,0,0,0,0,0,0,0,0,0,0,0,0,0,0,0,0,0,0,0,0,0,0,0,0,0,0,0,0,0,0,0,0,0,0,0,0,0,-2.6258,-2.6256,0,-2.6119,-2.6117,-2.6116,-2.5978,-2.5977,-2.5975,-2.5973,-2.5832,-2.583,-2.5828,0,0,0,0,0,0,0,0,0,0,0,0,0,-2.6408,-2.6406,-2.6258,-2.6256,-2.6254,-2.6119,-2.6117,-2.6115,-2.5979,-2.5976,-2.5974,-2.5972,-2.5833,-2.583,-2.5828,0,0,0,0,0,0,0,0,0,0,0,0,0,-2.6313,-2.6405,-2.6258,-2.617,-2.6161,-2.6119,-2.6117,-2.6115,-2.5979,-2.5976,-2.5974,-2.5971,-2.5834,-2.5831,-2.5827,-2.5863,0,0,-2.5818,-2.5817,0,0,0,0,0,0,0,0,-2.6319,-2.6308,-2.6185,-2.6176,-2.6165,-2.6063,-2.6118,-2.603,-2.598,-2.6048,-2.5973,-2.597,-2.5911,-2.5902,-2.5881,-2.5856,-2.585,-2.5818,-2.5816,-2.5814,-2.5814,0,0,0,0,0,0,0,-2.6325,-2.6313,-2.6203,-2.6183,-2.6171,-2.6138,-2.6122,-2.6101,-2.5997,-2.6042,-2.6032,-2.6017,-2.5905,-2.5885,-2.5877,-2.5848,-2.5818,-2.5815,-2.5813,-2.5812,-2.5846,-2.5849,0,0,0,0,0,0,-2.6345,-2.6319,-2.6207,-2.6199,-2.6237,-2.6138,-2.6119,-2.6099,-2.5996,-2.5978,-2.6019,-2.6011,-2.5891,-2.5881,-2.5872,-2.5907,-2.5815,-2.5812,-2.581,-2.5843,-2.5847,-2.585,0,0,0,0,0,0,-2.6349,-2.6336,-2.6213,-2.6256,-2.6238,-2.6138,-2.6116,-2.6097,-2.6076,-2.5979,-2.596,-2.6017,-2.5889,-2.5876,-2.5866,-2.59,-2.581,-2.5807,-2.584,-2.5844,-2.5848,-2.5978,0,0,0,0,0,0,-2.6354,-2.6339,-2.635,-2.6257,-2.6236,-2.6209,-2.6118,-2.6097,-2.6071,-2.6059,-2.5972,-2.5955,-2.5886,-2.5872,-2.5863,-2.5894,-2.5805,-2.5837,-2.5842,-2.5847,-2.597,-2.5986,-2.6,0,0,0,0,0,-2.636,-2.6392,-2.6351,-2.6339,-2.6248,-2.6211,-2.6199,-2.6118,-2.6075,-2.6086,-2.6024,-2.5958,-2.5898,-2.5872,-2.5861,-2.5892,-2.5834,-2.5841,-2.5847,-2.5964,-2.5983,-2.5999,0,0,0,0,0,0,-2.6491,-2.6378,-2.6332,-2.6335,-2.6284,-2.6188,-2.62,-2.6141,-2.6101,-2.6091,-2.5993,-2.5974,-2.5977,-2.5933,-2.5906,-2.5921,-2.5857,-2.5862,-2.595,-2.5967,-2.5982,-2.5992,-2.5802,0,0,0,0,0,-2.6521,-2.6499,-2.6402,-2.6414,-2.6391,-2.6301,-2.6281,-2.6223,-2.6167,-2.6144,-2.6081,-2.6029,-2.5999,-2.598,-2.5947,-2.5963,-2.5943,-2.598,-2.5994,-2.6007,-2.6012,-2.6019,-2.6035,-2.587,-2.587,-2.587,0,0,-2.6581,-2.6517,-2.6509,-2.6439,-2.6393,-2.6374,-2.6283,-2.6267,-2.6252,-2.6142,-2.6129,-2.6081,-2.6017,-2.6021,-2.602,-2.5985,-2.6053,-2.6015,-2.6026,-2.6024,-2.6028,-2.6043,-2.6057,-2.5874,-2.5874,-2.5873,0,0,-2.6682,-2.6631,-2.6636,-2.6592,-2.6523,-2.6462,-2.6464,-2.6378,-2.6342,-2.6327,-2.6245,-2.6227,-2.6176,-2.6133,-2.6106,-2.6193,-2.6132,-2.6185,-2.6262,-2.6271,-2.6284,-2.6295,-2.6327,-2.634,-2.6191,-2.6191,-2.6191,0,-2.6766,-2.6733,-2.6646,-2.6635,-2.6608,-2.6507,-2.6513,-2.6474,-2.6399,-2.6382,-2.6344,-2.6279,-2.6229,-2.6223,-2.6244,-2.6225,-2.6224,-2.6194,-2.6289,-2.6299,-2.6308,-2.6338,-2.635,-2.6198,-2.6197,-2.6196,-2.6196,0,-2.6841,-2.682,-2.6833,-2.6763,-2.6736,-2.6734,-2.6647,-2.6632,-2.6577,-2.6521,-2.6509,-2.6445,-2.6398,-2.6392,-2.6338,-2.6379,-2.636,-2.6307,-2.624,-2.6332,-2.6359,-2.6369,-2.6208,-2.6205,-2.6203,-2.6202,0,0,-2.7019,-2.6902,-2.6908,-2.6876,-2.6793,-2.6776,-2.677,-2.6723,-2.6713,-2.6664,-2.6658,-2.6618,-2.6569,-2.6538,-2.6478,-2.6486,-2.6561,-2.6431,-2.6429,-2.6459,-2.6604,-2.6645,-2.666,-2.652,-2.6522,-2.6523,-2.661,0,-2.7107,-2.7089,-2.7011,-2.7017,-2.6998,-2.6904,-2.6898,-2.6848,-2.6797,-2.6774,-2.6717,-2.6691,-2.6627,-2.6608,-2.6611,-2.6552,-2.6589,-2.6544,-2.6514,-2.6514,-2.6534,-2.6673,-2.6716,-2.6801,-2.662,-2.6622,-2.6623,0,-2.7206,-2.7164,-2.7168,-2.7088,-2.7077,-2.7074,-2.7026,-2.7005,-2.6947,-2.6909,-2.6875,-2.6809,-2.6799,-2.6737,-2.6722,-2.6694,-2.6677,-2.6646,-2.6647,-2.6642,-2.6575,-2.6673,-2.6826,-2.6839,-2.6638,-2.6637,-2.6636,0,-2.7337,-2.7282,-2.7278,-2.7253,-2.7159,-2.7159,-2.712,-2.7059,-2.7037,-2.6996,-2.698,-2.6939,-2.6916,-2.6886,-2.6812,-2.6773,-2.6806,-2.6738,-2.6776,-2.6778,-2.6787,-2.6787,-2.6941,-2.6776,-2.6776,-2.6775,-2.6775,0,-2.7443,-2.7449,-2.7336,-2.7333,-2.7339,-2.725,-2.7258,-2.721,-2.7157,-2.7145,-2.706,-2.7051,-2.6952,-2.6932,-2.6873,-2.6871,-2.6861,-2.6831,-2.6816,-2.6839,-2.6843,-2.6827,-2.682,-2.6779,-2.6778,-2.6777,-2.6777,0,-2.759,-2.7514,-2.7503,-2.7416,-2.7394,-2.7402,-2.7327,-2.7322,-2.7266,-2.7252,-2.7243,-2.7156,-2.7128,-2.705,-2.7002,-2.6963,-2.6978,-2.6948,-2.6998,-2.6988,-2.7031,-2.7028,-2.7179,-2.7195,-2.702,-2.7022,-2.7024,0,-2.7663,-2.7666,-2.7579,-2.7565,-2.7529,-2.7507,-2.7484,-2.7398,-2.7378,-2.7313,-2.7316,-2.7281,-2.7249,-2.7209,-2.7141,-2.7105,-2.7074,-2.713,-2.7068,-2.7092,-2.7076,-2.7077,-2.7078,-2.7143,-2.7146,-2.7148,-2.7149,0,-2.7801,-2.7763,-2.7733,-2.7691,-2.7667,-2.7629,-2.7587,-2.758,-2.7484,-2.7466,-2.7436,-2.7411,-2.7362,-2.7329,-2.7283,-2.7243,-2.7181,-2.7169,-2.7176,-2.72,-2.7229,-2.7216,-2.7035,-2.7166,-2.7164,-2.7163,-2.7162,-2.7162,-2.7913,-2.7912,-2.7851,-2.7821,-2.7781,-2.7744,-2.7736,-2.7679,-2.7653,-2.7606,-2.7557,-2.7533,-2.7477,-2.7408,-2.7373,-2.7354,-2.7321,-2.7331,-2.7334,-2.7338,-2.7349,-2.7233,-2.7345,-2.7345,-2.7344,-2.7343,-2.7343,0,-2.8047,-2.8004,-2.7977,-2.7922,-2.7899,-2.7842,-2.7793,-2.7778,-2.7758,-2.7711,-2.7681,-2.7648,-2.7616,-2.7547,-2.751,-2.7508,-2.7479,-2.7501,-2.7501,-2.7493,-2.738,-2.7378,-2.7525,-2.7525,-2.7525,-2.7525,-2.7525,-2.7525,-2.8114,-2.811,-2.8066,-2.8042,-2.7998,-2.7974,-2.7952,-2.7918,-2.788,-2.7847,-2.782,-2.7775,-2.772,-2.7678,-2.7647,-2.7627,-2.7618,-2.765,-2.7622,-2.7518,-2.7501,-2.7484,-2.7482,-2.7648,-2.7649,-2.7736,-2.7737,-2.7738]},{"header":{"parameterUnit":"m.s-1","parameterCategory":1,"la1":30.2991,"la2":30.254,"lo1":-89.0895,"lo2":-89.0444,"dy":0.0017,"dx":0.0017,"nx":28,"ny":28,"refTime":"2025-08-09T21:00:00:Z","depth":0,"parameterNumber":3,"parameterNumberName":"V-component_of_WINDS"},"data":[0,0,0,0,0,0,0,0,0,0,0,0,0,0,0,0,0,0,0,0,0,0,0,0,0,0,0,0,0,0,0,0,0,0,0,0,0,0,0,0,0,0,0,0,0,0,0,0,0,0,0,0,0,0,0,0,0,0,0.7136,0.7136,0,0.7178,0.7179,0.7179,0.7205,0.7205,0.7205,0.7205,0.7249,0.725,0.7252,0,0,0,0,0,0,0,0,0,0,0,0,0,0.7076,0.7077,0.7136,0.7136,0.7137,0.7178,0.7179,0.7179,0.7205,0.7205,0.7205,0.7205,0.7249,0.725,0.7252,0,0,0,0,0,0,0,0,0,0,0,0,0,0.7108,0.7077,0.7136,0.7154,0.7157,0.7178,0.7179,0.7179,0.7205,0.7205,0.7205,0.7205,0.7249,0.725,0.7252,0.7258,0,0,0.7257,0.7257,0,0,0,0,0,0,0,0,0.7106,0.7111,0.7151,0.7153,0.7156,0.7186,0.7174,0.7206,0.7205,0.7187,0.7205,0.7206,0.7228,0.7232,0.7239,0.726,0.7262,0.7257,0.7258,0.7258,0.7259,0,0,0,0,0,0,0,0.7104,0.7109,0.7153,0.7152,0.7154,0.7161,0.7165,0.718,0.7206,0.7188,0.719,0.7195,0.723,0.7238,0.724,0.7262,0.7257,0.7258,0.7259,0.726,0.7288,0.7287,0,0,0,0,0,0,0.7099,0.7107,0.7151,0.7154,0.7131,0.7161,0.7167,0.7176,0.7206,0.7211,0.7195,0.7196,0.7235,0.7239,0.7242,0.725,0.7258,0.726,0.7261,0.7288,0.7288,0.7287,0,0,0,0,0,0,0.7098,0.7103,0.7149,0.7131,0.7137,0.7162,0.7173,0.7177,0.7185,0.7211,0.7215,0.7198,0.7235,0.724,0.7253,0.7251,0.7261,0.7262,0.7288,0.7288,0.7288,0.7265,0,0,0,0,0,0,0.7096,0.7102,0.7105,0.7131,0.7138,0.716,0.7173,0.7178,0.7188,0.719,0.7215,0.722,0.7236,0.7251,0.7255,0.7254,0.7263,0.7288,0.7288,0.7288,0.7266,0.7264,0.7262,0,0,0,0,0,0.7094,0.7098,0.7105,0.711,0.7142,0.716,0.7164,0.7182,0.7188,0.719,0.7206,0.7219,0.7251,0.7252,0.7257,0.7256,0.7289,0.7288,0.7288,0.7267,0.7265,0.7263,0,0,0,0,0,0,0.7072,0.7102,0.711,0.7123,0.7138,0.7164,0.7169,0.718,0.7195,0.7196,0.7218,0.7223,0.7234,0.7247,0.7247,0.7262,0.7271,0.7272,0.7254,0.7252,0.725,0.7246,0.7265,0,0,0,0,0,0.7069,0.7081,0.7106,0.7115,0.7122,0.7144,0.7152,0.7164,0.7182,0.7189,0.7206,0.7222,0.7236,0.7245,0.7259,0.7268,0.7273,0.727,0.7268,0.7266,0.7266,0.727,0.7268,0.7286,0.7286,0.7286,0,0,0.7063,0.708,0.7086,0.7111,0.7124,0.7135,0.7149,0.7161,0.7169,0.7191,0.7204,0.7217,0.7236,0.7247,0.7253,0.7258,0.7262,0.7266,0.7264,0.7265,0.7269,0.7268,0.7266,0.7286,0.7286,0.7286,0,0,0.7056,0.7071,0.7079,0.7092,0.7112,0.7126,0.7128,0.7151,0.716,0.7174,0.7189,0.7199,0.7223,0.7235,0.7245,0.724,0.7251,0.7244,0.7234,0.7238,0.7236,0.7235,0.7232,0.7231,0.7244,0.7244,0.7244,0,0.7046,0.7064,0.7082,0.7092,0.7102,0.712,0.7128,0.7139,0.7163,0.7169,0.7174,0.7202,0.7217,0.723,0.7228,0.7236,0.7238,0.7242,0.7235,0.7234,0.7233,0.723,0.7229,0.7243,0.7243,0.7243,0.7243,0,0.7049,0.706,0.7064,0.7085,0.7095,0.7104,0.7123,0.7131,0.7142,0.7155,0.7167,0.7185,0.7202,0.7206,0.7218,0.722,0.7222,0.7231,0.724,0.723,0.7228,0.7227,0.7241,0.7242,0.7242,0.7242,0,0,0.7032,0.7061,0.7062,0.7071,0.7093,0.7103,0.7111,0.7127,0.7133,0.7148,0.7155,0.7173,0.718,0.7191,0.7204,0.7207,0.72,0.7215,0.7216,0.721,0.7201,0.7194,0.7192,0.7207,0.7207,0.7207,0.7199,0,0.7029,0.7045,0.7061,0.7071,0.7081,0.7098,0.7105,0.7119,0.7131,0.7141,0.7154,0.7166,0.7176,0.7182,0.7185,0.72,0.7198,0.7201,0.7213,0.7213,0.7207,0.7191,0.7184,0.7176,0.7198,0.7198,0.7198,0,0.7027,0.704,0.7051,0.707,0.7075,0.7081,0.7095,0.7105,0.712,0.7128,0.7139,0.7151,0.716,0.7168,0.718,0.7181,0.7187,0.7195,0.7195,0.7196,0.7205,0.7191,0.7174,0.7172,0.7197,0.7197,0.7197,0,0.7012,0.7032,0.7041,0.7048,0.7071,0.7074,0.7084,0.7099,0.7107,0.7119,0.7124,0.7138,0.7145,0.7155,0.717,0.7175,0.718,0.7189,0.7186,0.7185,0.7186,0.7186,0.7168,0.7191,0.7191,0.7191,0.7191,0,0.7006,0.7012,0.7034,0.7039,0.7046,0.7063,0.7069,0.708,0.7093,0.71,0.7115,0.7122,0.7142,0.715,0.7163,0.7169,0.7173,0.7179,0.7182,0.7177,0.7176,0.7181,0.7182,0.7191,0.7191,0.7191,0.7191,0,0.6991,0.7006,0.7016,0.7036,0.7041,0.7044,0.7061,0.7066,0.7078,0.7086,0.7089,0.7108,0.7118,0.7134,0.715,0.7158,0.7162,0.7168,0.7157,0.7158,0.7153,0.7153,0.7138,0.7136,0.7161,0.716,0.716,0,0.6986,0.6991,0.701,0.7015,0.7024,0.7032,0.704,0.7056,0.7063,0.7079,0.7081,0.7093,0.7103,0.7118,0.7133,0.7144,0.7149,0.7143,0.7151,0.7145,0.7148,0.7147,0.7146,0.7141,0.7141,0.7141,0.714,0,0.6975,0.6982,0.6991,0.7002,0.701,0.702,0.7031,0.7034,0.7053,0.7059,0.7069,0.7077,0.7091,0.7102,0.7114,0.7124,0.7134,0.7137,0.7137,0.7132,0.7124,0.7126,0.715,0.7138,0.7138,0.7138,0.7138,0.7138,0.6964,0.6968,0.6981,0.6991,0.7,0.7009,0.7014,0.7025,0.7033,0.7046,0.7055,0.7064,0.7077,0.7095,0.7103,0.711,0.7115,0.7115,0.7114,0.7114,0.7111,0.7123,0.7112,0.7113,0.7113,0.7113,0.7113,0,0.6953,0.6962,0.697,0.6983,0.699,0.6998,0.701,0.7015,0.7022,0.7033,0.7042,0.7052,0.7061,0.7075,0.7086,0.7088,0.7093,0.709,0.709,0.7091,0.7107,0.7106,0.7086,0.7086,0.7086,0.7086,0.7086,0.7086,0.6948,0.6954,0.6962,0.6972,0.698,0.6988,0.6994,0.7001,0.701,0.702,0.7027,0.7036,0.7048,0.7058,0.7067,0.7071,0.7073,0.7068,0.7073,0.7088,0.709,0.7093,0.7092,0.7069,0.7069,0.7057,0.7057,0.7057]}]]